Weather History for Corpus Christi NAS, TX

Change the Weather History Date:

Monday, December 3, 2012

  Actual Average Record
Temperature  
Mean Temperature 23 °C -  
Max Temperature 27 °C 20 °C 27 °C (2005)
Min Temperature 20 °C 12 °C 7 °C (2000)
Cooling Degree Days 9    
Growing Degree Days 24 (Base 50)    
Moisture  
Dew Point 20 °C    
Average Humidity 84    
Maximum Humidity 100    
Minimum Humidity 62    
Precipitation  
Precipitation 0.00 mm - - ()
Sea Level Pressure  
Sea Level Pressure 1016 hPa    
Wind  
Wind Speed 16 km/h (SSE)    
Max Wind Speed 34 km/h    
Max Gust Speed 45 km/h    
Visibility 16 kilometers    
Events      
Averages and records for this station are not official NWS values.
T = Trace of Precipitation, MM = Missing Value Source: NWS Daily Summary

Daily Weather History Graph

Daily Weather History Graph

Search for Another Location

Airport:

Trip Planner

Search our weather history database for the weather conditions in past years. The results will help you decide how hot, cold, wet, or windy it might be!

Date:

Astronomy

Dec. 03, 2012 Rise Set
Actual Time 7:04 AM CST 5:33 PM CST
Civil Twilight 6:39 AM CST 5:59 PM CST
Nautical Twilight 6:10 AM CST 6:28 PM CST
Astronomical Twilight 5:41 AM CST 6:56 PM CST
Moon 10:07 PM CST (12/3) 10:40 AM CST (12/3)
Length of Visible Light 11h 20m
Length of Day
10h 29m
Waning Gibbous, 78% of the Moon is Illuminated
Dec 3
Waning Gibbous
Dec 6
Last Quarter
Dec 13
New
Dec 19
First Quarter
Dec 28
Full

Hourly Weather History & Observations

Time (CST) Temp. Heat Index Dew Point Humidity Pressure Visibility Wind Dir Wind Speed Gust Speed Precip Events Conditions
12:56 AM 21.7 °C - 21.1 °C 96% 1017.4 hPa 16.1 km SSE 14.8 km/h / 4.1 m/s - N/A   Clear
1:56 AM 21.1 °C - 21.1 °C 100% 1017.3 hPa 16.1 km SSE 11.1 km/h / 3.1 m/s - N/A   Partly Cloudy
2:56 AM - - - N/A% 1017.3 hPa 16.1 km SSE 9.3 km/h / 2.6 m/s - N/A   Clear
3:56 AM - - - N/A% 1017.0 hPa 16.1 km South 9.3 km/h / 2.6 m/s - N/A   Clear
4:56 AM - - - N/A% 1017.0 hPa 16.1 km South 7.4 km/h / 2.1 m/s - N/A   Clear
5:56 AM 20.1 °C - 18.5 °C 90% 1017.0 hPa 16.1 km SSE 9.3 km/h / 2.6 m/s - N/A   Clear
6:56 AM 20.3 °C - 18.7 °C 90% 1017.6 hPa 16.1 km SE 9.3 km/h / 2.6 m/s - N/A   Scattered Clouds
7:56 AM 20.8 °C - 19.1 °C 90% 1018.0 hPa 16.1 km SSE 7.4 km/h / 2.1 m/s - N/A   Scattered Clouds
8:56 AM 22.8 °C - 21.1 °C 90% 1018.1 hPa 16.1 km SSE 16.7 km/h / 4.6 m/s - N/A   Scattered Clouds
9:56 AM 24.4 °C - 20.6 °C 79% 1018.3 hPa 16.1 km South 22.2 km/h / 6.2 m/s - N/A   Scattered Clouds
10:56 AM 25.6 °C - 20.0 °C 71% 1018.0 hPa 16.1 km South 24.1 km/h / 6.7 m/s 35.2 km/h / 9.8 m/s N/A   Scattered Clouds
11:56 AM 26.1 °C - 19.4 °C 66% 1017.1 hPa 16.1 km South 29.6 km/h / 8.2 m/s 40.7 km/h / 11.3 m/s N/A   Scattered Clouds
12:56 PM 26.7 °C 27.8 °C 18.9 °C 62% 1015.9 hPa 16.1 km South 33.3 km/h / 9.3 m/s 44.4 km/h / 12.3 m/s N/A   Scattered Clouds
1:56 PM 26.7 °C 27.8 °C 18.9 °C 62% 1015.3 hPa 16.1 km SSE 31.5 km/h / 8.7 m/s 44.4 km/h / 12.3 m/s N/A   Scattered Clouds
2:56 PM 26.1 °C - 19.4 °C 66% 1014.9 hPa 16.1 km SSE 29.6 km/h / 8.2 m/s 44.4 km/h / 12.3 m/s N/A   Scattered Clouds
3:56 PM 25.0 °C - 20.0 °C 74% 1014.9 hPa 16.1 km SSE 31.5 km/h / 8.7 m/s 42.6 km/h / 11.8 m/s N/A   Mostly Cloudy
4:56 PM 23.3 °C - 20.6 °C 85% 1015.0 hPa 16.1 km SE 25.9 km/h / 7.2 m/s - N/A   Mostly Cloudy
5:56 PM 22.8 °C - 20.6 °C 87% 1015.1 hPa 16.1 km SSE 22.2 km/h / 6.2 m/s - N/A   Mostly Cloudy
6:56 PM 22.8 °C - 20.6 °C 87% 1015.7 hPa 16.1 km SE 24.1 km/h / 6.7 m/s - N/A   Mostly Cloudy
7:56 PM 22.2 °C - 20.6 °C 91% 1016.2 hPa 16.1 km SSE 24.1 km/h / 6.7 m/s - N/A   Scattered Clouds
8:56 PM 22.2 °C - 21.1 °C 93% 1016.6 hPa 16.1 km SE 18.5 km/h / 5.1 m/s - N/A   Scattered Clouds
9:56 PM 22.2 °C - 21.1 °C 93% 1016.9 hPa 16.1 km SE 14.8 km/h / 4.1 m/s - N/A   Partly Cloudy
10:56 PM 22.2 °C - 21.1 °C 93% 1016.5 hPa 16.1 km SE 20.4 km/h / 5.7 m/s - N/A   Partly Cloudy
11:56 PM 22.2 °C - 21.7 °C 97% 1016.5 hPa 16.1 km SE 20.4 km/h / 5.7 m/s - N/A   Clear